Location: Azul
(36.7830°S, 59.8500°W)
Time: 01:56:53
(UTC-03:00)

HuskySat-1 - Pass Details

Date: 28 October 2021
Orbit: 443 x 456 km, 51.6° (Epoch: 04 December)

Event Time Altitude Azimuth Distance (km) Brightness Sun altitude
Rises 22:01:28 0° 257° (WSW) 2,501 ? -27.0°
Reaches altitude 10° 22:04:42 10° 226° (SW) 1,629 ? -27.4°
Maximum altitude 22:06:22 13° 199° (SSW) 1,478 ? -27.7°
Drops below altitude 10° 22:08:01 10° 172° (S) 1,631 ? -27.9°
Enters shadow 22:09:30 - 155° (SSE) 1,967 ? -28.1°
